User: anonymous   Login
Location: Launois
(49.6535°N, 4.5395°E)
Time: 17:55:02
(UTC+00:00)
Language:

CZ-2D R/B - Orbit

View from above orbital plane
View from above orbital plane
View from above satellite
View from above satellite

Ground track
Ground track

The orbit data is extracted from the following two-line orbital elements,

1 37932U 11068C   24196.47977230  .00000265  00000-0  13741-3 0  9993
2 37932  98.7972 138.2166 0037738 123.8231 347.7607 14.22536162656602
Epoch (UTC): 14 July 2024 11:30:52
Eccentricity: 0.0037738
inclination: 98.7972°
perigee height: 789 km
apogee height: 844 km
right ascension of ascending node: 138.2166°
argument of perigee: 123.8231°
revolutions per day: 14.22536162
mean anomaly at epoch: 347.7607°
orbit number at epoch: 65660

The dashed part of the orbit path shows where the satellite is in the earth's shadow,  

DLR